Location: Meanaryar
(48.4161°N, 4.7315°W)
Time: 02:34:40
(UTC+00:00)

CZ-2C R/B - Pass Details

Date: 18 September 2020
Orbit: 704 x 908 km, 98.1° (Epoch: 29 October)

Event Time Altitude Azimuth Distance (km) Brightness Sun altitude
Rises 19:37:18 0° 181° (S) 3,242 6.1 -12.7°
Reaches altitude 10° 19:39:38 10° 187° (S) 2,349 5.4 -13.1°
Maximum altitude 19:44:40 50° 262° (W) 1,048 4.1 -13.9°
Drops below altitude 10° 19:50:03 10° 337° (NNW) 2,496 6.3 -14.7°
Sets 19:52:35 0° 343° (NNW) 3,465 6.9 -15.1°
